Location: Winter Haven
(28.0220°N, 81.7330°W)
Time: 19:03:21
(UTC-04:00)

Amateur Radio Satellites - All Passes

Search period start: 25 July 2014 18:33
Search period end: 26 July 2014 18:33
Location: Winter Haven, 28.0220°N, 81.7330°W

Satellite Date Start Highest point End Downlink Frequencies (MHz)
Time Altitude Azimuth
Hamsat 25 Jul 18:53:02 18:57:13 88° 258° (WSW) 19:01:24 145.90 MHz
JAS-2 25 Jul 19:01:20 19:09:11 81° 76° (ENE) 19:16:52 435.800 - 435.900 CW/SSB, 435.910 FM
Saudisat 1A 25 Jul 19:05:04 19:09:24 61° 246° (WSW) 19:13:42 436.775 MHz
STRAND 1 25 Jul 20:13:31 20:18:38 88° 283° (WNW) 20:23:43 ?
SO-67 25 Jul 20:19:00 20:22:20 46° 261° (W) 20:25:41 435.3500 MHz FM
HO-68 25 Jul 20:41:24 20:46:51 24° 65° (ENE) 20:52:16 435.675 MHz FM
JAS-2 25 Jul 20:50:21 20:54:32 15° 267° (W) 20:58:43 435.800 - 435.900 CW/SSB, 435.910 FM
Oscar 11 25 Jul 21:41:47 21:44:37 17° 71° (ENE) 21:47:26 145.825 FM, Beacon 2401.500 USB
MaSat-1 25 Jul 21:42:57 21:45:44 21° 102° (ESE) 21:48:52 437.345 MHz
RS-15 25 Jul 22:17:40 22:24:51 19° 43° (NE) 22:32:08 29.354 - 29.394 USB, Beacon 29.352 USB
UKube-1 25 Jul 22:27:02 22:31:16 50° 259° (W) 22:35:32 145.840 MHz, 145.915 MHz
HO-68 25 Jul 22:27:10 22:34:04 51° 258° (WSW) 22:41:00 435.675 MHz FM
SO-50 25 Jul 23:00:51 23:05:07 32° 59° (ENE) 23:09:25 436.795 FM
Lituanica SAT-1 25 Jul 23:13:06 23:15:01 37° 314° (NW) 23:16:57 437.275 MHz beacon
Oscar 11 25 Jul 23:16:53 23:20:32 27° 262° (W) 23:24:13 145.825 FM, Beacon 2401.500 USB
MaSat-1 25 Jul 23:20:15 23:22:57 18° 301° (WNW) 23:25:57 437.345 MHz
FUNcube-1 25 Jul 23:27:32 23:31:56 65° 259° (W) 23:36:14 145.950 - 145.970 MHz USB
ISS 25 Jul 23:41:20 23:43:41 18° 126° (SE) 23:46:02 145.800 FM
RS-15 26 Jul 00:27:42 00:38:54 82° 64° (ENE) 00:50:33 29.354 - 29.394 USB, Beacon 29.352 USB
Sapphire 26 Jul 00:32:09 00:34:12 12° 103° (ESE) 00:36:15 437.095 MHz 1200 baud AX-25 AFSK
SO-50 26 Jul 00:41:54 00:45:27 21° 250° (WSW) 00:49:01 436.795 FM
PCSat 26 Jul 01:03:02 01:07:42 30° 107° (ESE) 01:12:22 145.825 MHz
ISS 26 Jul 01:17:25 01:20:14 25° 318° (NW) 01:23:04 145.800 FM
UOSAT-12 26 Jul 01:21:13 01:25:53 60° 62° (ENE) 01:30:26 437.025 FM, 437.400 FM
Oscar 16 26 Jul 01:41:12 01:42:30 11° 94° (E) 01:43:49 437.025 USB, Beacon 2401.1428
Sapphire 26 Jul 02:11:44 02:17:02 59° 295° (WNW) 02:22:22 437.095 MHz 1200 baud AX-25 AFSK
Uribyol 2 26 Jul 02:15:41 02:16:30 10° 94° (E) 02:17:18 436.500 FM
AO-40 26 Jul 02:31:19 04:16:42 37° 221° (SW) 08:41:29 Beacon 2401.320
JAS-1B 26 Jul 02:36:45 02:41:52 17° 89° (E) 02:46:33 435.800 - 435.900 CW/SSB
RS-15 26 Jul 02:43:03 02:50:03 19° 257° (WSW) 02:57:17 29.354 - 29.394 USB, Beacon 29.352 USB
PCSat 26 Jul 02:46:33 02:51:00 26° 301° (WNW) 02:55:29 145.825 MHz
Oscar 19 26 Jul 02:49:11 02:54:19 66° 102° (ESE) 02:59:27 437.125 CW, 437.150 USB
Oscar 16 26 Jul 03:17:01 03:22:05 59° 285° (WNW) 03:27:09 437.025 USB, Beacon 2401.1428
OPAL 26 Jul 03:29:36 03:31:21 12° 65° (ENE) 03:33:07 ?
ITAMSAT 1 26 Jul 03:30:44 03:35:54 76° 102° (ESE) 03:41:03 435.822 SSB
TMSAT-1 26 Jul 03:31:36 03:35:14 19° 96° (E) 03:38:50 436.925 FM
AO-Echo 26 Jul 03:32:30 03:37:34 84° 103° (ESE) 03:42:26 ?
AO-27 26 Jul 03:49:04 03:54:13 68° 285° (WNW) 03:59:20 436.795 MHz FM
Uribyol 2 26 Jul 03:51:08 03:56:13 61° 285° (WNW) 04:01:17 436.500 FM
Gurwin Techsat 1B 26 Jul 03:52:32 03:57:37 46° 100° (E) 04:02:41 435.225 FM
AO-7 26 Jul 04:08:01 04:10:15 11° 94° (E) 04:12:28 29.400 - 29.500 MHz
JAS-1B 26 Jul 04:24:02 04:33:19 78° 286° (WNW) 04:41:07 435.800 - 435.900 CW/SSB
Oscar 19 26 Jul 04:31:54 04:33:02 11° 294° (WNW) 04:34:10 437.125 CW, 437.150 USB
OPAL 26 Jul 05:04:51 05:09:43 56° 257° (WSW) 05:14:34 ?
TMSAT-1 26 Jul 05:10:19 05:15:10 38° 287° (WNW) 05:20:00 436.925 FM
PANSAT 26 Jul 05:23:44 05:26:51 23° 157° (SSE) 05:29:59 not established
Uosat F 26 Jul 05:26:27 05:31:24 61° 102° (ESE) 05:36:20 435.120 FM
Gurwin Techsat 1B 26 Jul 05:34:01 05:37:08 16° 292° (WNW) 05:40:15 435.225 FM
AO-7 26 Jul 05:55:22 06:03:43 86° 106° (ESE) 06:12:01 29.400 - 29.500 MHz
JAS-1B 26 Jul 06:18:11 06:21:59 13° 304° (NW) 06:25:37 435.800 - 435.900 CW/SSB
JAS-2 26 Jul 06:24:01 06:25:35 11° 91° (E) 06:27:08 435.800 - 435.900 CW/SSB, 435.910 FM
KITSAT 1 26 Jul 06:29:12 06:36:41 43° 108° (ESE) 06:44:10 435.175 FM
Hamsat 26 Jul 06:46:03 06:49:45 28° 98° (E) 06:53:27 145.90 MHz
Lituanica SAT-1 26 Jul 07:02:07 07:03:45 21° 44° (NE) 07:05:24 437.275 MHz beacon
PANSAT 26 Jul 07:02:57 07:06:48 68° 168° (SSE) 07:10:38 not established
Uosat F 26 Jul 07:08:20 07:09:36 11° 294° (WNW) 07:10:51 435.120 FM
STRAND 1 26 Jul 07:22:24 07:27:29 65° 75° (ENE) 07:32:35 ?
Saudisat 1A 26 Jul 07:28:18 07:30:01 12° 108° (ESE) 07:31:45 436.775 MHz
MaSat-1 26 Jul 07:44:42 07:48:36 21° 60° (ENE) 07:52:18 437.345 MHz
SO-67 26 Jul 07:50:23 07:52:53 18° 96° (E) 07:55:22 435.3500 MHz FM
AO-7 26 Jul 07:50:54 07:55:26 16° 301° (WNW) 07:59:57 29.400 - 29.500 MHz
ISS 26 Jul 07:52:18 07:53:56 13° 37° (NE) 07:55:34 145.800 FM
JAS-2 26 Jul 08:05:28 08:11:13 59° 286° (WNW) 08:16:25 435.800 - 435.900 CW/SSB, 435.910 FM
Hamsat 26 Jul 08:22:38 08:25:27 17° 289° (WNW) 08:28:16 145.90 MHz
KITSAT 1 26 Jul 08:24:55 08:32:02 34° 303° (WNW) 08:39:13 435.175 FM
PANSAT 26 Jul 08:43:08 08:47:00 82° 0° (N) 08:50:51 not established
Saudisat 1A 26 Jul 09:04:58 09:09:10 43° 299° (WNW) 09:13:23 436.775 MHz
MaSat-1 26 Jul 09:21:16 09:26:02 37° 255° (WSW) 09:30:27 437.345 MHz
SO-67 26 Jul 09:23:41 09:25:45 15° 288° (WNW) 09:27:48 435.3500 MHz FM
ISS 26 Jul 09:27:36 09:30:49 44° 230° (SW) 09:34:00 145.800 FM
HO-68 26 Jul 10:02:23 10:09:13 47° 101° (E) 10:16:00 435.675 MHz FM
UKube-1 26 Jul 10:22:16 10:26:27 46° 100° (E) 10:30:36 145.840 MHz, 145.915 MHz
PANSAT 26 Jul 10:23:21 10:27:11 65° 193° (SSW) 10:30:59 not established
Sapphire 26 Jul 11:07:17 11:11:46 26° 59° (ENE) 11:16:14 437.095 MHz 1200 baud AX-25 AFSK
Oscar 11 26 Jul 11:10:38 11:14:59 89° 283° (WNW) 11:19:19 145.825 FM, Beacon 2401.500 USB
FUNcube-1 26 Jul 11:23:47 11:27:42 39° 99° (E) 11:31:39 145.950 - 145.970 MHz USB
PCSat 26 Jul 11:40:21 11:45:42 59° 65° (ENE) 11:51:01 145.825 MHz
HO-68 26 Jul 11:50:56 11:56:29 25° 294° (WNW) 12:02:02 435.675 MHz FM
UKube-1 26 Jul 12:01:09 12:02:11 11° 292° (WNW) 12:03:12 145.840 MHz, 145.915 MHz
PANSAT 26 Jul 12:04:06 12:07:06 22° 204° (SSW) 12:10:05 not established
RS-15 26 Jul 12:34:26 12:41:48 20° 103° (ESE) 12:48:59 29.354 - 29.394 USB, Beacon 29.352 USB
Sapphire 26 Jul 12:50:24 12:55:05 30° 253° (WSW) 12:59:45 437.095 MHz 1200 baud AX-25 AFSK
FUNcube-1 26 Jul 13:02:20 13:03:43 11° 290° (WNW) 13:05:06 145.950 - 145.970 MHz USB
SO-50 26 Jul 13:09:05 13:13:20 49° 113° (ESE) 13:17:40 436.795 FM
PCSat 26 Jul 13:26:26 13:28:31 12° 257° (WSW) 13:30:37 145.825 MHz
Oscar 19 26 Jul 13:59:19 14:04:10 46° 74° (ENE) 14:09:02 437.125 CW, 437.150 USB
Oscar 16 26 Jul 14:26:53 14:32:00 83° 257° (WSW) 14:37:08 437.025 USB, Beacon 2401.1428
AO-Echo 26 Jul 14:37:53 14:42:58 52° 74° (ENE) 14:48:08 ?
RS-15 26 Jul 14:41:42 14:52:59 78° 297° (WNW) 15:03:58 29.354 - 29.394 USB, Beacon 29.352 USB
ITAMSAT 1 26 Jul 14:41:47 14:46:53 56° 74° (ENE) 14:51:58 435.822 SSB
TMSAT-1 26 Jul 14:46:30 14:49:30 15° 68° (ENE) 14:52:29 436.925 FM
SO-50 26 Jul 14:52:08 14:54:08 13° 307° (NW) 14:56:09 436.795 FM
JAS-1B 26 Jul 14:58:05 15:06:03 53° 70° (ENE) 15:15:12 435.800 - 435.900 CW/SSB
AO-27 26 Jul 15:00:04 15:05:18 90° 76° (ENE) 15:10:33 436.795 MHz FM
Uribyol 2 26 Jul 15:01:51 15:07:04 83° 257° (WSW) 15:12:17 436.500 FM
Gurwin Techsat 1B 26 Jul 15:06:55 15:11:45 37° 72° (ENE) 15:16:35 435.225 FM
UOSAT-12 26 Jul 15:25:32 15:30:05 87° 297° (WNW) 15:34:44 437.025 FM, 437.400 FM
Oscar 19 26 Jul 15:40:59 15:43:38 14° 265° (W) 15:46:18 437.125 CW, 437.150 USB
AO-Echo 26 Jul 16:19:25 16:21:55 13° 266° (W) 16:24:26 ?
Oscar 10/S400 26 Jul 16:20:45 07:39:25 47° 248° (WSW) 16:58:11 145.825 - 145.975 CW/USB, Beacon 145.810 USB
TMSAT-1 26 Jul 16:23:51 16:28:57 48° 260° (W) 16:34:04 436.925 FM
ITAMSAT 1 26 Jul 16:24:39 16:26:34 12° 266° (W) 16:28:30 435.822 SSB
KITSAT 1 26 Jul 16:25:06 16:32:29 38° 58° (ENE) 16:39:49 435.175 FM
Uosat F 26 Jul 16:32:58 16:37:39 40° 73° (ENE) 16:42:20 435.120 FM
AO-7 26 Jul 16:46:14 16:54:26 64° 70° (ENE) 17:02:40 29.400 - 29.500 MHz
Gurwin Techsat 1B 26 Jul 16:48:00 16:51:43 19° 264° (W) 16:55:27 435.225 FM
JAS-1B 26 Jul 16:49:52 16:56:45 29° 267° (W) 17:04:33 435.800 - 435.900 CW/SSB
RS-15 26 Jul 17:00:37 17:07:12 17° 318° (NW) 17:13:46 29.354 - 29.394 USB, Beacon 29.352 USB
OPAL 26 Jul 17:21:20 17:26:24 72° 104° (ESE) 17:31:31 ?
Saudisat 1A 26 Jul 17:38:52 17:42:11 20° 56° (NE) 17:45:28 436.775 MHz
JAS-2 26 Jul 18:07:56 18:14:39 32° 70° (ENE) 18:21:10 435.800 - 435.900 CW/SSB, 435.910 FM
Uosat F 26 Jul 18:13:24 18:16:29 16° 264° (W) 18:19:34 435.120 FM
